Darnley Island Airport


Codes: YDNI/NLF
Name: Darnley Island Airport
City: Darnley Island
Country: Australia
Elevation: 0 ft.

Photos at Darnley Island Airport


   Photos courtesy of SpottingLog. You can add your own sightings and photos by signing up for a free trial today.



No photos found.

Weather at Darnley Island Airport


Time (UTC)DescriptionTempratureWindCloud coverageVisibilityPressureHumidity
16-Jun-2024 03:00Overcast Clouds26°C13 mph, SE90%10000m1014hPa66%
16-Jun-2024 06:00Broken Clouds26°C13 mph, SE78%10000m1013hPa66%
16-Jun-2024 09:00Scattered Clouds26°C13 mph, SE34%10000m1013hPa67%
16-Jun-2024 12:00Few Clouds26°C13 mph, SE20%10000m1014hPa70%
16-Jun-2024 15:00Scattered Clouds25°C13 mph, SE36%10000m1014hPa70%
16-Jun-2024 18:00Broken Clouds25°C16 mph, SE60%10000m1013hPa69%
16-Jun-2024 21:00Few Clouds25°C16 mph, SE13%10000m1014hPa70%
17-Jun-2024 00:00Scattered Clouds25°C13 mph, SE44%10000m1015hPa70%
17-Jun-2024 03:00Scattered Clouds26°C13 mph, SE41%10000m1013hPa70%
17-Jun-2024 06:00Few Clouds26°C16 mph, SE24%10000m1012hPa70%
17-Jun-2024 09:00Clear Sky26°C16 mph, SE6%10000m1013hPa70%
17-Jun-2024 12:00Clear Sky26°C18 mph, SE3%10000m1014hPa70%
17-Jun-2024 15:00Scattered Clouds26°C18 mph, SE40%10000m1014hPa67%
17-Jun-2024 18:00Few Clouds26°C18 mph, SE20%10000m1013hPa67%
17-Jun-2024 21:00Clear Sky26°C18 mph, SE0%10000m1013hPa68%
18-Jun-2024 00:00Clear Sky26°C16 mph, SE0%10000m1014hPa67%
18-Jun-2024 03:00Clear Sky26°C16 mph, SE0%10000m1012hPa68%
18-Jun-2024 06:00Clear Sky26°C18 mph, SE1%10000m1011hPa68%
18-Jun-2024 09:00Broken Clouds26°C20 mph, SE71%10000m1012hPa70%
18-Jun-2024 12:00Broken Clouds26°C20 mph, SE73%10000m1014hPa66%
18-Jun-2024 15:00Broken Clouds26°C20 mph, SE76%10000m1013hPa65%
18-Jun-2024 18:00Broken Clouds26°C20 mph, SE75%10000m1012hPa65%
18-Jun-2024 21:00Light Rain26°C20 mph, SE83%10000m1013hPa66%
19-Jun-2024 00:00Overcast Clouds26°C18 mph, SE91%10000m1014hPa66%
19-Jun-2024 03:00Overcast Clouds26°C18 mph, SE88%10000m1012hPa64%
19-Jun-2024 06:00Broken Clouds26°C16 mph, SE66%10000m1011hPa66%
19-Jun-2024 09:00Scattered Clouds26°C18 mph, SE36%10000m1011hPa69%
19-Jun-2024 12:00Broken Clouds26°C18 mph, SE63%10000m1013hPa72%
19-Jun-2024 15:00Light Rain25°C22 mph, SE100%10000m1012hPa78%
19-Jun-2024 18:00Light Rain26°C22 mph, SE100%10000m1011hPa76%
19-Jun-2024 21:00Overcast Clouds26°C22 mph, SE96%10000m1012hPa76%
20-Jun-2024 00:00Overcast Clouds26°C25 mph, SE98%10000m1013hPa75%
20-Jun-2024 03:00Overcast Clouds26°C22 mph, SE100%10000m1012hPa76%
20-Jun-2024 06:00Light Rain26°C25 mph, SE100%10000m1010hPa76%
20-Jun-2024 09:00Light Rain26°C25 mph, SE94%10000m1012hPa76%
20-Jun-2024 12:00Light Rain26°C22 mph, SE97%10000m1014hPa77%
20-Jun-2024 15:00Light Rain26°C22 mph, SE99%10000m1013hPa78%
20-Jun-2024 18:00Light Rain26°C20 mph, SE100%10000m1012hPa78%
20-Jun-2024 21:00Light Rain26°C20 mph, SE96%10000m1013hPa79%
21-Jun-2024 00:00Light Rain25°C20 mph, SE96%10000m1013hPa81%